Tracking 18852 objects as of 23-Nov-2017
HD Live streaming from Space Station
objects crossing your sky now

COSMOS 1805

Track COSMOS 1805 now!
10-day predictions
COSMOS 1805 is classified as:


NORAD ID: 17191
Int'l Code: 1986-097A
Perigee: 535.1 km
Apogee: 539.6 km
Inclination: 82.5 °
Period: 95.2 minutes
Semi major axis: 6908 km
RCS: 9.467 m2 (large)
Launch date: December 10, 1986
Source: Commonwealth of Independent States (former USSR) (CIS)
Launch site: PLESETSK MISSILE AND SPACE COMPLEX (PKMTR)
aabbcc
Your satellite tracking list
Your tracking list is empty




NASA's NSSDC Master Catalog

Two Line Element Set (TLE):
1 17191U 86097A   17326.81806012  .00001378  00000-0  78679-4 0  9994
2 17191  82.4768 233.2162 0003285 239.3416 120.7491 15.11967664687619
Source of the keplerian elements: AFSPC